Harlingen, TX

8:44 AM CST on December 15, 2017 (GMT -0600)
Valley International

Weather History for KHRL - October, 2012

Change the Weather History Date:

Thursday, October 25, 2012

  Actual Average Record
Temperature  
Mean Temperature 80 °F 74 °F  
Max Temperature 94 °F 86 °F 96 °F (1931)
Min Temperature 65 °F 63 °F 46 °F (1945)
Degree Days  
Heating Degree Days 0 0  
Month to date heating degree days 0 0  
Since 1 July heating degree days 0 0  
Cooling Degree Days 15 10  
Month to date cooling degree days 387 295  
Year to date cooling degree days 4501 3724  
Growing Degree Days 28 (Base 50)    
Moisture  
Dew Point 68 °F    
Average Humidity 67    
Maximum Humidity 93    
Minimum Humidity 41    
Precipitation  
Precipitation 0.00 in 0.10 in 1.30 in (1974)
Month to date precipitation 0.48 2.43  
Year to date precipitation 13.20 21.86  
Sea Level Pressure  
Sea Level Pressure 29.83 in    
Wind  
Wind Speed 10 mph (SSE)    
Max Wind Speed 22 mph    
Max Gust Speed 26 mph    
Visibility 10 miles    
Events      
T = Trace of Precipitation, MM = Missing Value Source: NWS Daily Summary

Daily Weather History Graph

Daily Weather History Graph

Search for Another Location

Airport or City:

Trip Planner

Search our weather history database for the weather conditions in past years. The results will help you decide how hot, cold, wet, or windy it might be!

Date:

Astronomy

Oct. 25, 2012 Rise Set
Actual Time 7:35 AM CDT 6:53 PM CDT
Civil Twilight 7:11 AM CDT 7:16 PM CDT
Nautical Twilight 6:44 AM CDT 7:43 PM CDT
Astronomical Twilight 6:17 AM CDT 8:10 PM CDT
Moon 4:22 PM CDT (10/25) 3:54 AM CDT (10/25)
Length of Visible Light 12h 04m
Length of Day
11h 17m
Waxing Gibbous, 84% of the Moon is Illuminated
Oct 25
Waxing Gibbous
Oct 29
Full
Nov 6
Last Quarter
Nov 13
New
Nov 20
First Quarter

Hourly Weather History & Observations

Time (CDT) Temp. Heat Index Dew Point Humidity Pressure Visibility Wind Dir Wind Speed Gust Speed Precip Events Conditions
12:52 AM 70.0 °F - 64.9 °F 84% 29.86 in 10.0 mi South 6.9 mph - N/A   Clear
1:52 AM 69.1 °F - 66.0 °F 90% 29.85 in 10.0 mi SSE 5.8 mph - N/A   Clear
2:52 AM 68.0 °F - 64.9 °F 90% 29.84 in 10.0 mi SE 4.6 mph - N/A   Clear
3:52 AM 66.9 °F - 64.0 °F 90% 29.82 in 10.0 mi Calm Calm - N/A   Clear
4:52 AM 66.9 °F - 64.9 °F 93% 29.82 in 10.0 mi Calm Calm - N/A   Clear
5:52 AM 66.9 °F - 64.9 °F 93% 29.82 in 10.0 mi SE 5.8 mph - N/A   Clear
6:52 AM 68.0 °F - 66.2 °F 94% 29.82 in 10.0 mi SE 6.9 mph - N/A   Clear
7:52 AM 68.0 °F - 66.2 °F 94% 29.83 in 10.0 mi SSE 3.5 mph - N/A   Clear
8:52 AM 75.0 °F - 71.1 °F 87% 29.85 in 10.0 mi SE 5.8 mph - N/A   Clear
9:52 AM 82.0 °F 86.7 °F 72.0 °F 71% 29.85 in 10.0 mi South 16.1 mph - N/A   Clear
10:52 AM 86.0 °F 90.7 °F 70.0 °F 59% 29.86 in 10.0 mi South 15.0 mph - N/A   Clear
11:18 AM 87.8 °F 92.6 °F 69.8 °F 55% 29.86 in 10.0 mi South 15.0 mph - N/A   Mostly Cloudy
11:52 AM 89.1 °F 94.1 °F 70.0 °F 53% 29.85 in 10.0 mi SSE 12.7 mph 20.7 mph N/A   Mostly Cloudy
12:52 PM 89.1 °F 92.9 °F 68.0 °F 50% 29.83 in 10.0 mi South 10.4 mph - N/A   Scattered Clouds
1:52 PM 91.9 °F 94.5 °F 66.0 °F 42% 29.79 in 10.0 mi South 13.8 mph 24.2 mph N/A   Scattered Clouds
2:52 PM 91.9 °F 94.1 °F 64.9 °F 41% 29.77 in 10.0 mi SSE 17.3 mph 23.0 mph N/A   Scattered Clouds
3:52 PM 91.9 °F 95.4 °F 66.9 °F 44% 29.76 in 10.0 mi SSE 20.7 mph 25.3 mph N/A   Scattered Clouds
4:52 PM 89.1 °F 92.1 °F 66.9 °F 48% 29.77 in 10.0 mi SSE 18.4 mph 23.0 mph N/A   Mostly Cloudy
5:52 PM 88.0 °F 92.1 °F 69.1 °F 53% 29.78 in 10.0 mi SE 18.4 mph - N/A   Clear
6:52 PM 82.9 °F 87.0 °F 70.0 °F 65% 29.80 in 10.0 mi SE 17.3 mph 23.0 mph N/A   Clear
8:52 PM 79.0 °F - 71.1 °F 77% 29.85 in 10.0 mi SE 10.4 mph - N/A   Clear
9:52 PM 77.0 °F - 71.1 °F 82% 29.86 in 10.0 mi SE 8.1 mph - N/A   Clear
10:52 PM 75.0 °F - 70.0 °F 84% 29.88 in 10.0 mi SE 8.1 mph - N/A   Clear
11:52 PM 75.2 °F - 69.8 °F 83% 29.87 in 10.0 mi SSE 8.1 mph - N/A   Clear